Regional Weather Roundup
Issued by NWS

Home | Current Version | Previous Version | Text Only | Print | Product List | Glossary Off
Versions: 1 2 3 4 5 6 7 8 9 10 11 12 13 14 15 16 17 18 19 20 21 22 23 24 25 26 27 28 29 30 31 32 33 34 35 36 37 38 39 40 41 42 43 44 45 46 47 48 49 50

000
ASUS43 KIND 191959
RWRIN

WEATHER ROUNDUP FOR INDIANA
NATIONAL WEATHER SERVICE INDIANAPOLIS IN
300 PM EST MON FEB 19 2018

NOTE: "FAIR" INDICATES FEW OR NO CLOUDS BELOW 12,000 FEET WITH NO
SIGNIFICANT WEATHER AND/OR OBSTRUCTIONS TO VISIBILITY.

* - STATION DOES NOT REPORT WEATHER SUCH AS PRECIPITATION OR FOG.

+ - STATION NOT QUALITY CONTROLLED BY THE NATIONAL WEATHER SERVICE.
    USE DATA WITH CAUTION...ESPECIALLY DEWPOINT AND RELATIVE
    HUMIDITY OBSERVATIONS.

INZ001>003-010>013-019-020-192100-
NORTHWEST INDIANA

CITY           SKY/WX    TMP DP  RH WIND       PRES   REMARKS
GARY /AIRPORT/ CLOUDY    55  55 100 SW14G29   29.79F
MONTICELLO +   CLOUDY    59  57  95 SW17G24   29.88S

$$

LMZ046-743>745-192100-
SOUTHERN LAKE MICHIGAN

STATION/POSITION TIME  TEMP    WIND        PRES    WAVE
                       AIR SEA DIR/SP/G            HT
                 (UTC) (F)     (DEG/KT/KT) (MB)    (FT)
BURNS HARBOR     1930   55     210/ 21/ 29 1009.5F
MICHIGAN CITY    1930   55     190/ 23/ 28   N/A

$$

INZ004-005-014>016-021>024-192100-
NORTH CENTRAL INDIANA

CITY           SKY/WX    TMP DP  RH WIND       PRES   REMARKS
ELKHART        LGT RAIN  50  50 100 SW8       29.84S
GOSHEN         LGT RAIN  56  54  93 SW17      29.85S
PERU/GRISSOM   CLOUDY    60  60 100 S22G32    29.90S
SOUTH BEND     CLOUDY    52  52 100 SW15G24   29.84S
WARSAW +       RAIN      55  55 100 SW9G17    29.87S

$$

INZ006>009-017-018-025>027-192100-
NORTHEAST INDIANA

CITY           SKY/WX    TMP DP  RH WIND       PRES   REMARKS
AUBURN +       RAIN      57  55  94 SW10G18   29.90F
FORT WAYNE     LGT RAIN  60  57  89 SW20G28   29.91S
KENDALLVILLE + LGT RAIN  55  55 100 SW15G23   29.88F

$$

INZ028-029-035-036-043>045-051>053-192100-
WEST CENTRAL INDIANA

CITY           SKY/WX    TMP DP  RH WIND       PRES   REMARKS
GREENCASTLE +  CLOUDY    59  57  94 S6        29.98S FOG
LAFAYETTE      LGT RAIN  60  57  89 S15G31    29.88F FOG
TERRE HAUTE    CLOUDY    62  59  90 S9        29.97F

$$

INZ030>032-037>040-046>048-054>057-064-065-192100-
CENTRAL INDIANA

CITY           SKY/WX    TMP DP  RH WIND       PRES   REMARKS
COLUMBUS       PTSUNNY   68  57  68 SW13      30.00F
GREENWOOD *+   CLOUDY    61 -47   1 SW13G24   30.00R
INDIANAPOLIS   LGT RAIN  62  58  86 SW22G28   29.99R
-EAGLE CREEK   LGT RAIN  62  57  83 SW14G30   29.97R
KOKOMO +       LGT RAIN  59  57  93 SW17G25   29.93S
MT COMFORT *+  CLOUDY    61  61 100 SW17G26   29.99R
SHELBYVILLE    PTSUNNY   67  58  72 SW20      30.00R

$$

INZ033-034-041-042-049-050-058-059-192100-
EAST CENTRAL INDIANA

CITY           SKY/WX    TMP DP  RH WIND       PRES   REMARKS
MUNCIE         LGT RAIN  63  58  83 SW15G28   29.95S
RICHMOND +     CLOUDY    64  59  82 SW16G24   30.02S HAZE

$$

INZ060-061-067>069-081>083-085>088-192100-
SOUTHWEST INDIANA

CITY           SKY/WX    TMP DP  RH WIND       PRES   REMARKS
EVANSVILLE     FAIR      73  58  59 S20G31    30.00F
HUNTINGBURG +  PTSUNNY   73  59  61 S20G28    30.01F

$$

INZ062-063-066-070>080-084-089>092-192100-
SOUTH CENTRAL AND SOUTHEAST INDIANA

CITY           SKY/WX    TMP DP  RH WIND       PRES   REMARKS
BLOOMINGTON    CLOUDY    67  58  72 SW16G25   29.99F

$$





USA.gov is the U.S. government's official web portal to all federal, state and local government web resources and services.